Tracking 19176 objects as of 26-May-2018
HD Live streaming from Space Station
objects crossing your sky now

NOAA 16 DEB

Track NOAA 16 DEB now!
10-day predictions


NORAD ID: 41086
Int'l Code: 2000-055AV
Perigee: 782.7 km
Apogee: 853.4 km
Inclination: 98.8 °
Period: 101.1 minutes
Semi major axis: 7189 km
RCS: Unknown
Launch date: September 21, 2000
Source: United States (US)
Launch site: AIR FORCE WESTERN TEST RANGE (AFWTR)

Note: This is SATELLITE DEBRIS
aabbcc
Your satellite tracking list
Your tracking list is empty




NASA's NSSDC Master Catalog

Two Line Element Set (TLE):
1 41086U 00055AV  18145.02268674 +.00000763 +00000-0 +34561-3 0  9991
2 41086 098.7874 228.2140 0049127 008.6001 351.6008 14.24280240129384
Source of the keplerian elements: AFSPC